User: anonymous   Login
Location: *
(38.3914°N, 75.0697°W)
Time: 08:57:34
(UTC+00:00)
Language:

LO-87 - Orbit

View from above orbital plane
View from above orbital plane
View from above satellite
View from above satellite

Ground track
Ground track

The orbit data is extracted from the following two-line orbital elements,

1 41557U 16033B   21128.82373127  .00001518  00000-0  55943-4 0  9997
2 41557  97.3913 222.9909 0013542  22.9524 126.3275 15.29303286275478
Epoch (UTC): 08 May 2021 19:46:10
Eccentricity: 0.0013542
inclination: 97.3913°
perigee height: 468 km
apogee height: 487 km
right ascension of ascending node: 222.9909°
argument of perigee: 22.9524°
revolutions per day: 15.29303286
mean anomaly at epoch: 126.3275°
orbit number at epoch: 27547

The dashed part of the orbit path shows where the satellite is in the earth's shadow,  

DLR